星链-33782 (STARLINK-33782)

导读 | 豆包AI

STARLINK-33782是美国SpaceX公司星链(Starlink)星座中的一颗低轨通信卫星,于2025年6月10日发射入轨。星链星座旨在为全球提供高速低延迟宽带互联网服务,尤其覆盖基础设施匮乏区域。该卫星采用平板设计,配备氪工质霍尔推进器,支持自主避撞,寿命末期会再入大气层烧毁,减少太空垃圾影响,单星设计寿命约5至7年。

基本信息
目录编号:
64332
目录名称:
STARLINK-33782
国际标识:
2025-124R
轨道中心:
EARTH
卫星名称:
星链-33782
卫星全名:
星链-33782 (STARLINK-33782)
卫星状态:
在轨 (已飞行277 天)
发射日期:
2025-06-10 UTC
国别 :
美国 (US)
星等 :
--
轨道信息
数据来源 国际轨道数据
星历时间: 2026-03-13T18:17:58+0800
1天前
查看轨道信息
半长轴: 6861.142km
偏心率: 0.0001509
轨道倾角: 43.000°
近地点辐角 249.789°
升交点赤经 100.474°
平近点角 110.280°
近地点: 481.969km
远地点: 484.041km
周期: 94.266分钟
每日圈数: 15.27595
详细信息
固有亮度:
5
最大亮度:
2.5
卫星平台:
Starlink V1.0
覆盖范围:
全球
运营商:
太空探索技术公司
运营商所在国:
美国
制造商(研发单位):
太空探索技术公司
制造商所在国:
美国
使用方式:
暂无
卫星简介
Starlink 计划是 SpaceX 推出的全球卫星互联网项目,通过发射低轨道卫星,为全球尤其是偏远地区提供高速、低延迟的互联网服务。自 2019 年起,Starlink 已部署数千颗卫星,旨在缩小全球数字鸿沟,推动互联网普及。该项目还为军事、航空等行业提供通信支持,带来广泛经济效益。
2D轨道图
3D轨道图
轨道高度分析图
轨道倾角分析图
轨道综合分析图
查看轨道综合分析图